Regional Weather Roundup
Issued by NWS

Home | Current Version | Previous Version | Graphics & Text | Print | Product List | Glossary On
Versions: 1 2 3 4 5 6 7 8 9 10 11 12 13 14 15 16 17 18 19 20 21 22 23 24 25 26 27 28 29 30 31 32 33 34 35 36 37 38 39 40 41 42 43 44 45 46 47 48 49 50
000
ASUS43 KMPX 252010
RWRMN
WEATHER ROUNDUP FOR MINNESOTA
NATIONAL WEATHER SERVICE TWIN CITIES/CHANHASSEN MN
300 PM CDT MON SEP 25 2017


NOTE: "FAIR" INDICATES FEW OR NO CLOUDS BELOW 12,000 FEET WITH NO
SIGNIFICANT WEATHER AND/OR OBSTRUCTIONS TO VISIBILITY. N/A MEANS
CURRENT SKY AND/OR WEATHER CONDITIONS ARE NOT AVAILABLE.

MNZ060>063-068>070-252100-
   Twin Cities Metro

CITY           SKY/WX    TMP DP  RH WIND       PRES   REMARKS
TWIN CITIES    CLOUDY    62  59  90 NW10      29.98F
ST PAUL        CLOUDY    62  59  90 N8        29.98F
CRYSTAL        CLOUDY    60  53  77 N9        29.98S
BLAINE         CLOUDY    61  57  88 N9        29.99S
LAKEVILLE      CLOUDY    63  59  88 NW8       29.97F
EDEN PRAIRIE   CLOUDY    60  57  89 N10       29.97F
SOUTH ST PAUL  CLOUDY    62  60  93 N9        29.97F
LAKE ELMO      CLOUDY    63  59  88 NW7       29.98F
$$
MNZ001>005-007-008-013>017-022>024-027-028-252100-
   Northwest Minnesota

CITY           SKY/WX    TMP DP  RH WIND       PRES   REMARKS
BEMIDJI        CLOUDY    53  49  87 N6        30.06F
HALLOCK          N/A     54  46  76 N9        30.13S
ROSEAU         CLOUDY    55  48  76 N8        30.11S
THIEF RVR FALL CLOUDY    52  46  80 N12       30.11F
CROOKSTON      CLOUDY    54  46  76 N10       30.12R
FOSSTON        CLOUDY    54  48  82 N8        30.09S
DETROIT LAKES  CLOUDY    54  46  76 N5        30.07F
MOORHEAD       CLOUDY    52  46  82 N10       30.09F
PARK RAPIDS    CLOUDY    57  48  72 N8        30.05F
MAHNOMEN       CLOUDY    53  47  82 N8        30.08F
$$
MNZ006-009>011-018-025>026-252100-
   North Central Minnesota

CITY           SKY/WX    TMP DP  RH WIND       PRES   REMARKS
BAUDETTE       PTSUNNY   55  50  83 N6        30.09S
FLAG ISLAND    CLOUDY    54  46  76 N8        30.09S
INTL FALLS     CLOUDY    54  48  80 N9        30.08R
WASKISH        CLOUDY    55  50  82 N7        30.08S
BIG FORK       CLOUDY    55  50  82 N3        30.06S
LONGVILLE      CLOUDY    55  50  82 N3        30.04F
GRAND RAPIDS   CLOUDY    55  50  83 N7        30.06S
CRANE LAKE     CLOUDY    55  52  88 NW3       30.07R
ORR            CLOUDY    55  48  76 NW3       30.04R
WALKER         CLOUDY    55  48  79 N8        30.05S
$$
MNZ012-019>021-037-252100-
   Northeast Minnesota

CITY           SKY/WX    TMP DP  RH WIND       PRES   REMARKS
DULUTH         LGT RAIN  55  54  96 N9        30.01S
ELY            CLOUDY    55  52  88 CALM      30.04R
HIBBING        CLOUDY    54  51  90 N5        30.04S
EVELETH        PTSUNNY   58  56  95 CALM      30.04F
GRAND MARAIS     N/A     64  59  83 W3        29.98R
$$
MNZ029>031-032-039>041-046>048-054>057-064-252100-
   West Central Minnesota

CITY           SKY/WX    TMP DP  RH WIND       PRES   REMARKS
FERGUS FALLS   CLOUDY    55  48  76 N7        30.06F
WHEATON        CLOUDY    54  46  76 N12       30.08S
ALEXANDRIA     CLOUDY    58  49  72 NE5       30.05F
ELBOW LAKE     CLOUDY    55  49  82 N6        30.05F
WADENA         CLOUDY    55  48  76 N6        30.05S
GLENWOOD       PTSUNNY   57  52  82 N9        30.03F
APPLETON       CLOUDY    59  48  67 CALM      30.02F
BENSON         CLOUDY    57  52  82 N8        30.04F
ORTONVILLE     CLOUDY    55  48  76 N8        30.05R
MADISON        CLOUDY    59  52  77 NW8       30.03S
WILLMAR        CLOUDY    61  54  77 N8        30.03F
$$
MNZ033>034-036-042>043-049>051-058-059-252100-
   Central Minnesota

CITY           SKY/WX    TMP DP  RH WIND       PRES   REMARKS
ST CLOUD       CLOUDY    57  54  89 N7        30.02S
SAUK CENTRE    CLOUDY    56  50  81 N8        30.04F
PAYNESVILLE    CLOUDY    58  53  83 N7        30.02F
AITKIN         CLOUDY    54  50  87 N6        30.02F
PINE RIVER     CLOUDY    54  46  76 N8        30.08S
BRAINERD       CLOUDY    55  51  86 N7        30.04F
STAPLES        CLOUDY    55  48  76 N8        30.04F
LITTLE FALLS   CLOUDY    55  46  71 N5        30.03F
LITCHFIELD     PTSUNNY   61  57  88 N9        30.01F
BUFFALO        CLOUDY    57  54  89 NW7       30.01F
MAPLE LAKE     CLOUDY    58  56  92 NW8       30.02S
HUTCHINSON     CLOUDY    60  56  86 N6        30.01F
$$
MNZ037-044-045-052-053-252100-
   East Central Minnesota

CITY           SKY/WX    TMP DP  RH WIND       PRES   REMARKS
PRINCETON      CLOUDY    59  55  88 N8        30.02S
MORA           CLOUDY    55  52  88 N7        30.03S
RUSH CITY      CLOUDY    57  54  88 N7        30.01S
MOOSE LAKE     CLOUDY    54  52  94 N6        30.01S
HINCKLEY       CLOUDY    57  54  88 N7        30.01S
CLOQUET        RAIN      55  52  88 NW8       30.02F
MCGREGOR       CLOUDY    55  50  82 N6        30.04F
$$
MNZ071>073-080-081-089-090-097-098-252100-
   Southwest Minnesota

CITY           SKY/WX    TMP DP  RH WIND       PRES   REMARKS
MONTEVIDEO     CLOUDY    61  54  77 NE10      30.02F
GRANITE FALLS  CLOUDY    59  54  83 N8        30.03F
CANBY          CLOUDY    57  51  81 N7        30.03F
MARSHALL       CLOUDY    57  50  77 N9        30.02F
REDWOOD FALLS  CLOUDY    60  51  72 N7        30.00F
OLIVIA         CLOUDY    59  54  82 N8        30.01F
PIPESTONE      CLOUDY    55  52  88 NE12      29.99F
WORTHINGTON    LGT RAIN  54  52  94 NE10      29.99F
JACKSON        CLOUDY    54  52  94 VRB5      30.00F
TRACY          CLOUDY    57  53  86 N9        30.01F
SLAYTON        LGT RAIN  54  45  71 N10       30.02F
$$
MNZ065>067-074>077-082>085-091>093-252100-
   South Central Minnesota

CITY           SKY/WX    TMP DP  RH WIND       PRES   REMARKS
MANKATO        CLOUDY    58  56  93 NW10      29.98F
NEW ULM        CLOUDY    55  55 100 NW8       29.99F FOG
ST JAMES       CLOUDY    57  54  88 N8        30.00F
FAIRMONT       CLOUDY    57  55  94 NW12      29.99S
FARIBAULT      CLOUDY    63  61  94 NW7       29.96F
OWATONNA       CLOUDY    63  61  94 N10       29.95F FOG
WASECA         CLOUDY    63  57  82 NW10      29.97F
ALBERT LEA     CLOUDY    66  64  94 N10       29.94F
$$
MNZ078>079-086>088-094>096-252100-
   Southeast Minnesota

CITY           SKY/WX    TMP DP  RH WIND       PRES   REMARKS
ROCHESTER      CLOUDY    73  67  81 N9        29.92F
RED WING       CLOUDY    70  61  73 NW8       29.93F
STANTON        CLOUDY    64  60  85 NW8       29.95F
DODGE CENTER   CLOUDY    66  63  88 NW10      29.94F
WINONA         CLOUDY    73  64  73 SE8       29.91F
AUSTIN         PTSUNNY   73  66  78 N12G17    29.91F
PRESTON        MOSUNNY   76  65  69 SE7       29.92F
$$
ABBREVIATIONS USED IN REMARKS
   TC - TEMPERATURES IN CELSIUS
  WCI - WIND CHILL INDEX
   HX - HEAT INDEX
  VSB - VISIBILITY
$$



USA.gov is the U.S. government's official web portal to all federal, state and local government web resources and services.